| time (UTC) | temp F | wind direction | speed knots | gust knots | rain 1hr in | rain 24hr in | rain mn in | humidity % | barometer mb |
| 20260510045244 | 78 | 180 | 10.4 | 18.2 | 0.00 | 0.00 | 0.00 | 59 | 1007.5 |
| 20260510044744 | 78 | 189 | 8.7 | 15.6 | 0.00 | 0.00 | 0.00 | 58 | 1007.7 |
| 20260510044245 | 78 | 200 | 9.6 | 15.6 | 0.00 | 0.00 | 0.00 | 58 | 1007.7 |
| 20260510044039 | 78 | 183 | 9.6 | 13.0 | 0.00 | 0.00 | 0.00 | 58 | 1007.7 |
| 20260510043245 | 78 | 185 | 9.6 | 14.8 | 0.00 | 0.00 | 0.00 | 57 | 1007.8 |
| 20260510042744 | 78 | 179 | 9.6 | 14.8 | 0.00 | 0.00 | 0.00 | 57 | 1007.6 |
| 20260510042541 | 79 | 152 | 9.6 | 15.6 | 0.00 | 0.00 | 0.00 | 57 | 1007.7 |
| 20260510042036 | 79 | 159 | 9.6 | 18.2 | 0.00 | 0.00 | 0.00 | 56 | 1007.7 |
| 20260510041244 | 79 | 157 | 11.3 | 18.2 | 0.00 | 0.00 | 0.00 | 56 | 1007.6 |
| 20260510041040 | 79 | 155 | 9.6 | 19.1 | 0.00 | 0.00 | 0.00 | 56 | 1007.6 |
| 20260510040245 | 79 | 183 | 12.2 | 20.0 | 0.00 | 0.00 | 0.00 | 56 | 1007.7 |
| 20260510035743 | 79 | 193 | 13.0 | 20.0 | 0.00 | 0.00 | 0.00 | 56 | 1007.7 |
| 20260510035242 | 79 | 180 | 9.6 | 17.4 | 0.00 | 0.00 | 0.00 | 55 | 1007.7 |
| 20260510034745 | 79 | 173 | 11.3 | 17.4 | 0.00 | 0.00 | 0.00 | 55 | 1007.7 |
| 20260510034243 | 79 | 159 | 7.8 | 16.5 | 0.00 | 0.00 | 0.00 | 54 | 1007.7 |
| 20260510033743 | 79 | 178 | 11.3 | 17.4 | 0.00 | 0.00 | 0.00 | 54 | 1007.8 |
| 20260510033245 | 80 | 200 | 9.6 | 17.4 | 0.00 | 0.00 | 0.00 | 54 | 1007.6 |
| 20260510033037 | 80 | 144 | 9.6 | 14.8 | 0.00 | 0.00 | 0.00 | 54 | 1007.7 |
| 20260510032242 | 80 | 157 | 7.8 | 14.8 | 0.00 | 0.00 | 0.00 | 54 | 1007.7 |
| 20260510031742 | 80 | 134 | 10.4 | 14.8 | 0.00 | 0.00 | 0.00 | 53 | 1007.8 |
| 20260510031242 | 80 | 162 | 8.7 | 13.9 | 0.00 | 0.00 | 0.00 | 53 | 1007.7 |
| 20260510030743 | 80 | 175 | 10.4 | 15.6 | 0.00 | 0.00 | 0.00 | 53 | 1007.8 |
| 20260510030243 | 80 | 168 | 9.6 | 15.6 | 0.00 | 0.00 | 0.00 | 53 | 1007.8 |
| 20260510025742 | 80 | 133 | 9.6 | 14.8 | 0.00 | 0.00 | 0.00 | 52 | 1007.7 |
| 20260510025243 | 80 | 161 | 8.7 | 12.2 | 0.00 | 0.00 | 0.00 | 52 | 1007.7 |
| 20260510024743 | 80 | 158 | 9.6 | 12.2 | 0.00 | 0.00 | 0.00 | 51 | 1007.6 |
| 20260510024244 | 80 | 145 | 7.0 | 12.2 | 0.00 | 0.00 | 0.00 | 50 | 1007.6 |
| 20260510023741 | 80 | 147 | 9.6 | 12.2 | 0.00 | 0.00 | 0.00 | 50 | 1007.6 |
| 20260510023243 | 80 | 189 | 7.0 | 10.4 | 0.00 | 0.00 | 0.00 | 49 | 1007.6 |
| 20260510022743 | 80 | 189 | 7.0 | 11.3 | 0.00 | 0.00 | 0.00 | 45 | 1007.6 |
| 20260510022241 | 0 | 158 | 7.0 | 11.3 | 0.00 | 0.00 | 0.00 | 1007.5 | |
| 20260510021742 | 80 | 171 | 7.0 | 10.4 | 0.00 | 0.00 | 0.00 | 44 | 1007.5 |
| 20260510021241 | 80 | 178 | 4.3 | 7.8 | 0.00 | 0.00 | 0.00 | 44 | 1007.4 |
| 20260510020740 | 80 | 178 | 4.3 | 7.8 | 0.00 | 0.00 | 0.00 | 44 | 1007.3 |
| 20260510020242 | 80 | 148 | 4.3 | 7.8 | 0.00 | 0.00 | 0.00 | 44 | 1007.3 |
| 20260510015741 | 80 | 152 | 5.2 | 6.1 | 0.00 | 0.00 | 0.00 | 44 | 1007.0 |
| 20260510015242 | 80 | 173 | 4.3 | 7.8 | 0.00 | 0.00 | 0.00 | 45 | 1007.1 |
| 20260510014742 | 81 | 172 | 5.2 | 7.8 | 0.00 | 0.00 | 0.00 | 44 | 1006.9 |
| 20260510014241 | 81 | 176 | 5.2 | 7.8 | 0.00 | 0.00 | 0.00 | 44 | 1006.9 |
| 20260510013813 | 82 | 169 | 6.1 | 7.8 | 0.00 | 0.00 | 0.00 | 42 | 1006.8 |
| 20260510013033 | 83 | 169 | 4.3 | 6.1 | 0.00 | 0.00 | 0.00 | 41 | 1006.7 |
| 20260510012532 | 84 | 169 | 4.3 | 6.1 | 0.00 | 0.00 | 0.00 | 40 | 1006.8 |
| 20260510012034 | 85 | 166 | 2.6 | 5.2 | 0.00 | 0.00 | 0.00 | 40 | 1006.8 |
| 20260510011239 | 85 | 171 | 3.5 | 5.2 | 0.00 | 0.00 | 0.00 | 39 | 1006.9 |
| 20260510010739 | 85 | 180 | 4.3 | 5.2 | 0.00 | 0.00 | 0.00 | 38 | 1006.9 |
| 20260510010240 | 86 | 180 | 4.3 | 7.8 | 0.00 | 0.00 | 0.00 | 37 | 1006.9 |
| 20260510010027 | 86 | 226 | 5.2 | 7.8 | 0.00 | 0.00 | 0.00 | 37 | 1006.8 |
| 20260510005239 | 87 | 161 | 4.3 | 10.4 | 0.00 | 0.00 | 0.00 | 35 | 1006.8 |
| 20260510004739 | 87 | 182 | 6.1 | 11.3 | 0.00 | 0.00 | 0.00 | 34 | 1006.7 |
| 20260510004239 | 87 | 180 | 7.0 | 12.2 | 0.00 | 0.00 | 0.00 | 33 | 1006.7 |
| 20260510003739 | 88 | 196 | 5.2 | 12.2 | 0.00 | 0.00 | 0.00 | 33 | 1006.8 |
| 20260510003240 | 88 | 188 | 7.8 | 11.3 | 0.00 | 0.00 | 0.00 | 33 | 1006.7 |
| 20260510002739 | 88 | 175 | 8.7 | 11.3 | 0.00 | 0.00 | 0.00 | 33 | 1006.8 |
| 20260510002238 | 88 | 199 | 7.0 | 13.0 | 0.00 | 0.00 | 0.00 | 34 | 1006.7 |
| 20260510001738 | 89 | 165 | 7.8 | 13.0 | 0.00 | 0.00 | 0.00 | 33 | 1006.7 |
| 20260510001237 | 89 | 173 | 10.4 | 13.0 | 0.00 | 0.00 | 0.00 | 32 | 1006.7 |
| 20260510000739 | 89 | 183 | 7.8 | 13.0 | 0.00 | 0.00 | 0.00 | 33 | 1006.8 |
| 20260510000241 | 90 | 141 | 5.2 | 11.3 | 0.00 | 0.00 | 0.00 | 33 | 1006.9 |
| 20260509235738 | 90 | 195 | 4.3 | 11.3 | 0.00 | 0.00 | 0.00 | 33 | 1006.8 |
| 20260509235238 | 90 | 168 | 7.0 | 13.0 | 0.00 | 0.00 | 0.00 | 32 | 1006.8 |
| 20260509234737 | 90 | 172 | 9.6 | 16.5 | 0.00 | 0.00 | 0.00 | 31 | 1006.8 |
| 20260509234238 | 91 | 183 | 6.1 | 16.5 | 0.00 | 0.00 | 0.00 | 30 | 1006.8 |
| 20260509233737 | 91 | 189 | 6.1 | 12.2 | 0.00 | 0.00 | 0.00 | 31 | 1006.9 |
| 20260509233237 | 0 | 158 | 7.8 | 12.2 | 0.00 | 0.00 | 0.00 | 1006.9 | |
| 20260509232737 | 91 | 210 | 7.8 | 11.3 | 0.00 | 0.00 | 0.00 | 31 | 1006.9 |
| 20260509232237 | 91 | 183 | 7.0 | 12.2 | 0.00 | 0.00 | 0.00 | 31 | 1006.9 |
| 20260509231737 | 92 | 207 | 7.0 | 12.2 | 0.00 | 0.00 | 0.00 | 30 | 1006.9 |
| 20260509231236 | 92 | 227 | 7.8 | 12.2 | 0.00 | 0.00 | 0.00 | 30 | 1006.9 |
| 20260509230736 | 92 | 165 | 4.3 | 11.3 | 0.00 | 0.00 | 0.00 | 30 | 1006.9 |
| 20260509230237 | 92 | 217 | 6.1 | 11.3 | 0.00 | 0.00 | 0.00 | 30 | 1007.0 |
| 20260509225736 | 92 | 220 | 2.6 | 10.4 | 0.00 | 0.00 | 0.00 | 31 | 1006.9 |
| 20260509225238 | 92 | 244 | 5.2 | 10.4 | 0.00 | 0.00 | 0.00 | 31 | 1007.0 |
| 20260509224736 | 92 | 185 | 3.5 | 11.3 | 0.00 | 0.00 | 0.00 | 31 | 1007.0 |
| 20260509224238 | 92 | 251 | 7.8 | 13.0 | 0.00 | 0.00 | 0.00 | 29 | 1006.9 |
| 20260509223735 | 92 | 197 | 5.2 | 13.0 | 0.00 | 0.00 | 0.00 | 30 | 1007.0 |
| 20260509223236 | 92 | 169 | 6.1 | 13.0 | 0.00 | 0.00 | 0.00 | 31 | 1007.0 |
| 20260509222736 | 92 | 196 | 5.2 | 13.0 | 0.00 | 0.00 | 0.00 | 30 | 1006.9 |
| 20260509222530 | 93 | 223 | 4.3 | 12.2 | 0.00 | 0.00 | 0.00 | 31 | 1006.9 |
| 20260509221738 | 0 | 199 | 3.5 | 13.0 | 0.00 | 0.00 | 0.00 | 1007.0 | |
| 20260509221235 | 0 | 138 | 6.1 | 14.8 | 0.00 | 0.00 | 0.00 | 1006.9 | |
| 20260509220735 | 93 | 185 | 9.6 | 14.8 | 0.00 | 0.00 | 0.00 | 31 | 1007.0 |
| 20260509220525 | 93 | 173 | 7.8 | 13.9 | 0.00 | 0.00 | 0.00 | 31 | 1006.9 |
| 20260509215735 | 93 | 221 | 4.3 | 10.4 | 0.00 | 0.00 | 0.00 | 31 | 1006.9 |
| 20260509215236 | 93 | 178 | 4.3 | 10.4 | 0.00 | 0.00 | 0.00 | 31 | 1007.0 |
| 20260509214734 | 93 | 217 | 5.2 | 10.4 | 0.00 | 0.00 | 0.00 | 35 | 1007.1 |
| 20260509214234 | 92 | 247 | 6.1 | 10.4 | 0.00 | 0.00 | 0.00 | 31 | 1007.1 |
| 20260509213736 | 92 | 182 | 5.2 | 10.4 | 0.00 | 0.00 | 0.00 | 31 | 1007.3 |
| 20260509213237 | 92 | 204 | 6.1 | 13.0 | 0.00 | 0.00 | 0.00 | 31 | 1007.3 |
| 20260509212734 | 92 | 179 | 5.2 | 15.6 | 0.00 | 0.00 | 0.00 | 34 | 1007.3 |
| 20260509212235 | 92 | 197 | 9.6 | 15.6 | 0.00 | 0.00 | 0.00 | 33 | 1007.4 |
| 20260509211734 | 92 | 210 | 7.8 | 13.0 | 0.00 | 0.00 | 0.00 | 36 | 1007.4 |
| 20260509211234 | 92 | 168 | 5.2 | 16.5 | 0.00 | 0.00 | 0.00 | 35 | 1007.5 |
| 20260509210733 | 92 | 169 | 11.3 | 17.4 | 0.00 | 0.00 | 0.00 | 33 | 1007.6 |
| 20260509210234 | 92 | 159 | 7.8 | 17.4 | 0.00 | 0.00 | 0.00 | 33 | 1007.6 |
| 20260509205734 | 92 | 155 | 3.5 | 9.6 | 0.00 | 0.00 | 0.00 | 33 | 1007.6 |
| 20260509205235 | 92 | 231 | 1.7 | 13.9 | 0.00 | 0.00 | 0.00 | 35 | 1007.8 |
| 20260509205021 | 92 | 134 | 7.0 | 13.9 | 0.00 | 0.00 | 0.00 | 34 | 1008.0 |
| 20260509204527 | 92 | 124 | 7.0 | 10.4 | 0.00 | 0.00 | 0.00 | 35 | 1007.9 |
| 20260509204033 | 92 | 169 | 6.1 | 11.3 | 0.00 | 0.00 | 0.00 | 36 | 1008.0 |
| 20260509203233 | 92 | 164 | 4.3 | 11.3 | 0.00 | 0.00 | 0.00 | 35 | 1008.1 |
| 20260509202733 | 92 | 171 | 7.0 | 11.3 | 0.00 | 0.00 | 0.00 | 35 | 1008.2 |
| 20260509202235 | 92 | 219 | 2.6 | 14.8 | 0.00 | 0.00 | 0.00 | 35 | 1008.2 |
| 20260509201732 | 91 | 202 | 6.1 | 14.8 | 0.00 | 0.00 | 0.00 | 36 | 1008.3 |
| 20260509201233 | 91 | 165 | 5.2 | 10.4 | 0.00 | 0.00 | 0.00 | 37 | 1008.3 |
| 20260509200732 | 91 | 169 | 5.2 | 13.0 | 0.00 | 0.00 | 0.00 | 34 | 1008.4 |
| 20260509200233 | 91 | 128 | 7.8 | 13.0 | 0.00 | 0.00 | 0.00 | 36 | 1008.4 |
| 20260509200021 | 91 | 149 | 7.0 | 11.3 | 0.00 | 0.00 | 0.00 | 36 | 1008.5 |
| 20260509195232 | 91 | 179 | 7.0 | 10.4 | 0.00 | 0.00 | 0.00 | 37 | 1008.6 |
| 20260509194732 | 91 | 183 | 3.5 | 10.4 | 0.00 | 0.00 | 0.00 | 39 | 1008.7 |
| 20260509194231 | 91 | 209 | 4.3 | 10.4 | 0.00 | 0.00 | 0.00 | 41 | 1008.8 |
| 20260509193732 | 90 | 148 | 3.5 | 11.3 | 0.00 | 0.00 | 0.00 | 38 | 1008.8 |
| 20260509193232 | 91 | 166 | 5.2 | 11.3 | 0.00 | 0.00 | 0.00 | 38 | 1009.0 |
| 20260509193028 | 91 | 154 | 7.0 | 11.3 | 0.00 | 0.00 | 0.00 | 38 | 1009.0 |
| 20260509192306 | 91 | 137 | 8.7 | 10.4 | 0.00 | 0.00 | 0.00 | 40 | 1009.0 |
| 20260509191233 | 91 | 193 | 5.2 | 11.3 | 0.00 | 0.00 | 0.00 | 39 | 1009.3 |
| 20260509190732 | 91 | 148 | 2.6 | 10.4 | 0.00 | 0.00 | 0.00 | 40 | 1009.3 |
| 20260509190236 | 90 | 178 | 6.1 | 8.7 | 0.00 | 0.00 | 0.00 | 43 | 1009.2 |
| 20260509185738 | 90 | 173 | 3.5 | 10.4 | 0.00 | 0.00 | 0.00 | 41 | 1009.3 |
| 20260509185232 | 90 | 166 | 5.2 | 10.4 | 0.00 | 0.00 | 0.00 | 43 | 1009.3 |
| 20260509184731 | 90 | 248 | 3.5 | 7.8 | 0.00 | 0.00 | 0.00 | 43 | 1009.3 |
| 20260509184232 | 90 | 197 | 4.3 | 7.8 | 0.00 | 0.00 | 0.00 | 42 | 1009.4 |
| 20260509183734 | 89 | 258 | 3.5 | 8.7 | 0.00 | 0.00 | 0.00 | 44 | 1009.3 |
| 20260509183230 | 89 | 274 | 3.5 | 8.7 | 0.00 | 0.00 | 0.00 | 46 | 1009.5 |
| 20260509182730 | 89 | 185 | 2.6 | 12.2 | 0.00 | 0.00 | 0.00 | 46 | 1009.5 |
| 20260509182230 | 89 | 237 | 6.1 | 13.0 | 0.00 | 0.00 | 0.00 | 47 | 1009.5 |
| 20260509182024 | 88 | 172 | 3.5 | 13.0 | 0.00 | 0.00 | 0.00 | 46 | 1009.5 |
| 20260509181230 | 88 | 226 | 2.6 | 7.8 | 0.00 | 0.00 | 0.00 | 45 | 1009.6 |
| 20260509180731 | 87 | 80 | 1.7 | 7.8 | 0.00 | 0.00 | 0.00 | 47 | 1009.8 |
| 20260509180229 | 87 | 117 | 2.6 | 8.7 | 0.00 | 0.00 | 0.00 | 46 | 1009.9 |
| 20260509175732 | 87 | 180 | 6.1 | 9.6 | 0.00 | 0.00 | 0.00 | 46 | 1010.0 |
| 20260509175229 | 88 | 138 | 5.2 | 9.6 | 0.00 | 0.00 | 0.00 | 48 | 1010.0 |
| 20260509174731 | 88 | 206 | 5.2 | 9.6 | 0.00 | 0.00 | 0.00 | 48 | 1010.1 |
| 20260509174230 | 87 | 142 | 4.3 | 9.6 | 0.00 | 0.00 | 0.00 | 47 | 1010.3 |
| 20260509173728 | 87 | 185 | 3.5 | 7.8 | 0.00 | 0.00 | 0.00 | 50 | 1010.2 |
| 20260509173229 | 87 | 209 | 1.7 | 10.4 | 0.00 | 0.00 | 0.00 | 47 | 1010.2 |
| 20260509172728 | 87 | 192 | 4.3 | 10.4 | 0.00 | 0.00 | 0.00 | 49 | 1010.3 |
| 20260509172231 | 87 | 238 | 2.6 | 9.6 | 0.00 | 0.00 | 0.00 | 49 | 1010.3 |
| 20260509171729 | 87 | 148 | 3.5 | 10.4 | 0.00 | 0.00 | 0.00 | 48 | 1010.5 |
| 20260509171230 | 87 | 188 | 7.8 | 10.4 | 0.00 | 0.00 | 0.00 | 49 | 1010.5 |
| 20260509170729 | 86 | 185 | 4.3 | 7.8 | 0.00 | 0.00 | 0.00 | 52 | 1010.7 |
| 20260509170227 | 86 | 214 | 3.5 | 13.0 | 0.00 | 0.00 | 0.00 | 52 | 1010.5 |
| 20260509170025 | 86 | 148 | 6.1 | 13.0 | 0.00 | 0.00 | 0.00 | 51 | 1010.6 |
| 20260509165229 | 85 | 169 | 7.0 | 9.6 | 0.00 | 0.00 | 0.00 | 53 | 1010.6 |
| 20260509164729 | 85 | 176 | 3.5 | 8.7 | 0.00 | 0.00 | 0.00 | 52 | 1010.6 |
| 20260509164228 | 85 | 196 | 3.5 | 8.7 | 0.00 | 0.00 | 0.00 | 52 | 1010.6 |
| 20260509163727 | 85 | 176 | 5.2 | 8.7 | 0.00 | 0.00 | 0.00 | 57 | 1010.6 |
| 20260509163227 | 84 | 217 | 3.5 | 7.8 | 0.00 | 0.00 | 0.00 | 57 | 1010.7 |
| 20260509162728 | 84 | 219 | 5.2 | 7.8 | 0.00 | 0.00 | 0.00 | 59 | 1010.7 |
| 20260509162228 | 83 | 243 | 2.6 | 7.8 | 0.00 | 0.00 | 0.00 | 59 | 1010.8 |
| 20260509161726 | 83 | 212 | 3.5 | 11.3 | 0.00 | 0.00 | 0.00 | 60 | 1010.8 |
| 20260509161226 | 83 | 209 | 5.2 | 11.3 | 0.00 | 0.00 | 0.00 | 58 | 1010.7 |
| 20260509160726 | 83 | 183 | 5.2 | 9.6 | 0.00 | 0.00 | 0.00 | 58 | 1010.7 |
| 20260509160227 | 83 | 183 | 4.3 | 9.6 | 0.00 | 0.00 | 0.00 | 60 | 1010.8 |
| 20260509155726 | 82 | 207 | 6.1 | 8.7 | 0.00 | 0.00 | 0.00 | 60 | 1010.7 |
| 20260509155523 | 82 | 210 | 4.3 | 8.7 | 0.00 | 0.00 | 0.00 | 59 | 1010.8 |
| 20260509155015 | 82 | 234 | 5.2 | 8.7 | 0.00 | 0.00 | 0.00 | 61 | 1010.8 |
| 20260509154227 | 82 | 213 | 5.2 | 8.7 | 0.00 | 0.00 | 0.00 | 61 | 1010.8 |
| 20260509154022 | 82 | 237 | 4.3 | 9.6 | 0.00 | 0.00 | 0.00 | 63 | 1010.8 |
| 20260509153226 | 81 | 226 | 4.3 | 9.6 | 0.00 | 0.00 | 0.00 | 64 | 1010.9 |
| 20260509152726 | 81 | 214 | 4.3 | 11.3 | 0.00 | 0.00 | 0.00 | 65 | 1010.9 |
| 20260509152225 | 80 | 275 | 5.2 | 13.9 | 0.00 | 0.00 | 0.00 | 65 | 1010.7 |
| 20260509151726 | 80 | 268 | 8.7 | 13.9 | 0.00 | 0.00 | 0.00 | 66 | 1010.8 |
| 20260509151227 | 79 | 223 | 7.0 | 10.4 | 0.00 | 0.00 | 0.00 | 69 | 1010.8 |
| 20260509150725 | 79 | 264 | 5.2 | 10.4 | 0.00 | 0.00 | 0.00 | 69 | 1010.8 |
| 20260509150225 | 78 | 252 | 6.1 | 15.6 | 0.00 | 0.00 | 0.00 | 69 | 1010.8 |
| 20260509145725 | 78 | 259 | 7.8 | 15.6 | 0.00 | 0.00 | 0.00 | 69 | 1010.8 |
| 20260509145226 | 78 | 221 | 6.1 | 11.3 | 0.00 | 0.00 | 0.00 | 70 | 1010.8 |
| 20260509144724 | 77 | 192 | 4.3 | 9.6 | 0.00 | 0.00 | 0.00 | 71 | 1010.9 |
| 20260509144224 | 77 | 258 | 6.1 | 9.6 | 0.00 | 0.00 | 0.00 | 72 | 1010.8 |
| 20260509143724 | 76 | 258 | 5.2 | 9.6 | 0.00 | 0.00 | 0.00 | 73 | 1010.9 |
| 20260509143224 | 76 | 268 | 5.2 | 7.8 | 0.00 | 0.00 | 0.00 | 73 | 1011.0 |
| 20260509142723 | 76 | 238 | 4.3 | 9.6 | 0.00 | 0.00 | 0.00 | 75 | 1011.0 |
| 20260509142225 | 75 | 214 | 5.2 | 9.6 | 0.00 | 0.00 | 0.00 | 76 | 1011.0 |
| 20260509141724 | 74 | 235 | 4.3 | 10.4 | 0.00 | 0.00 | 0.00 | 76 | 1011.0 |
| 20260509141223 | 74 | 259 | 6.1 | 12.2 | 0.00 | 0.00 | 0.00 | 77 | 1011.0 |
| 20260509140724 | 73 | 247 | 6.1 | 12.2 | 0.00 | 0.00 | 0.00 | 78 | 1011.0 |
| 20260509140223 | 73 | 245 | 6.1 | 9.6 | 0.00 | 0.00 | 0.00 | 81 | 1011.0 |
| 20260509135723 | 72 | 219 | 3.5 | 7.8 | 0.00 | 0.00 | 0.00 | 82 | 1011.0 |
| 20260509135223 | 71 | 204 | 1.7 | 7.8 | 0.00 | 0.00 | 0.00 | 83 | 1010.9 |
| 20260509135018 | 71 | 216 | 1.7 | 7.8 | 0.00 | 0.00 | 0.00 | 84 | 1011.0 |
| 20260509134225 | 70 | 254 | 2.6 | 7.8 | 0.00 | 0.00 | 0.00 | 84 | 1011.0 |
| 20260509133722 | 70 | 200 | 3.5 | 9.6 | 0.00 | 0.00 | 0.00 | 85 | 1010.9 |
| 20260509133223 | 69 | 217 | 3.5 | 9.6 | 0.00 | 0.00 | 0.00 | 87 | 1010.9 |
| 20260509132723 | 69 | 183 | 3.5 | 7.8 | 0.00 | 0.00 | 0.00 | 88 | 1010.8 |
| 20260509132223 | 68 | 161 | 2.6 | 6.1 | 0.00 | 0.00 | 0.00 | 88 | 1010.9 |
| 20260509131723 | 68 | 204 | 2.6 | 6.1 | 0.00 | 0.00 | 0.00 | 88 | 1010.8 |
| 20260509131223 | 67 | 189 | 3.5 | 6.1 | 0.00 | 0.00 | 0.00 | 88 | 1010.8 |
| 20260509131019 | 67 | 228 | 3.5 | 13.0 | 0.00 | 0.00 | 0.00 | 88 | 1010.7 |
| 20260509130224 | 0 | 190 | 4.3 | 13.0 | 0.00 | 0.00 | 0.00 | 1010.7 | |
| 20260509125722 | 67 | 238 | 6.1 | 10.4 | 0.00 | 0.00 | 0.00 | 89 | 1010.6 |
| 20260509125223 | 67 | 216 | 5.2 | 9.6 | 0.00 | 0.00 | 0.00 | 89 | 1010.6 |
| 20260509124722 | 67 | 223 | 5.2 | 12.2 | 0.00 | 0.00 | 0.00 | 89 | 1010.5 |
| 20260509124221 | 67 | 227 | 7.0 | 12.2 | 0.00 | 0.00 | 0.00 | 89 | 1010.4 |
| 20260509123721 | 66 | 209 | 7.0 | 12.2 | 0.00 | 0.00 | 0.00 | 89 | 1010.4 |
| 20260509123222 | 66 | 223 | 5.2 | 12.2 | 0.00 | 0.00 | 0.00 | 89 | 1010.4 |
| 20260509122723 | 66 | 168 | 5.2 | 13.0 | 0.00 | 0.00 | 0.00 | 89 | 1010.3 |
| 20260509122515 | 66 | 213 | 7.8 | 13.0 | 0.00 | 0.00 | 0.00 | 89 | 1010.3 |
| 20260509121722 | 66 | 227 | 9.6 | 12.2 | 0.00 | 0.00 | 0.00 | 89 | 1010.2 |
| 20260509121220 | 66 | 216 | 6.1 | 13.0 | 0.00 | 0.00 | 0.00 | 89 | 1010.1 |
| 20260509121017 | 66 | 196 | 7.8 | 13.0 | 0.00 | 0.00 | 0.00 | 89 | 1010.1 |
| 20260509120222 | 66 | 203 | 5.2 | 11.3 | 0.00 | 0.00 | 0.00 | 89 | 1010.1 |
| 20260509120015 | 66 | 180 | 6.1 | 11.3 | 0.00 | 0.00 | 0.00 | 89 | 1010.1 |
| 20260509115223 | 66 | 178 | 5.2 | 8.7 | 0.00 | 0.00 | 0.00 | 88 | 1010.2 |
| 20260509115013 | 66 | 159 | 4.3 | 8.7 | 0.00 | 0.00 | 0.00 | 88 | 1010.2 |
| 20260509114221 | 66 | 185 | 3.5 | 9.6 | 0.00 | 0.00 | 0.00 | 88 | 1010.2 |
| 20260509113720 | 65 | 214 | 6.1 | 12.2 | 0.00 | 0.00 | 0.00 | 88 | 1010.0 |
| 20260509113220 | 65 | 173 | 7.0 | 12.2 | 0.00 | 0.00 | 0.00 | 88 | 1009.9 |
| 20260509112719 | 65 | 196 | 6.1 | 9.6 | 0.00 | 0.00 | 0.00 | 87 | 1009.7 |
| 20260509112221 | 64 | 195 | 4.3 | 8.7 | 0.00 | 0.00 | 0.00 | 87 | 1009.8 |
| 20260509112017 | 64 | 230 | 1.7 | 7.8 | 0.00 | 0.00 | 0.00 | 87 | 1009.7 |
| 20260509111221 | 64 | 185 | 3.5 | 9.6 | 0.00 | 0.00 | 0.00 | 87 | 1009.6 |
| 20260509111015 | 64 | 209 | 5.2 | 9.6 | 0.00 | 0.00 | 0.00 | 87 | 1009.6 |
| 20260509110221 | 64 | 164 | 4.3 | 7.8 | 0.00 | 0.00 | 0.00 | 87 | 1009.7 |
| 20260509105718 | 64 | 195 | 4.3 | 6.1 | 0.00 | 0.00 | 0.00 | 88 | 1009.6 |
| 20260509105516 | 64 | 173 | 3.5 | 5.2 | 0.00 | 0.00 | 0.00 | 88 | 1009.7 |
| 20260509104719 | 64 | 149 | 3.5 | 8.7 | 0.00 | 0.00 | 0.00 | 88 | 1009.8 |
| 20260509104218 | 64 | 169 | 6.1 | 8.7 | 0.00 | 0.00 | 0.00 | 88 | 1009.8 |
| 20260509103719 | 64 | 195 | 5.2 | 12.2 | 0.00 | 0.00 | 0.00 | 87 | 1009.8 |
| 20260509103218 | 64 | 183 | 7.0 | 13.9 | 0.00 | 0.00 | 0.00 | 87 | 1009.8 |
| 20260509102718 | 64 | 178 | 7.8 | 13.9 | 0.00 | 0.00 | 0.00 | 86 | 1009.7 |
| 20260509102217 | 64 | 168 | 8.7 | 13.9 | 0.00 | 0.00 | 0.00 | 86 | 1009.8 |
| 20260509101717 | 64 | 182 | 8.7 | 13.0 | 0.00 | 0.00 | 0.00 | 85 | 1009.9 |
| 20260509101217 | 64 | 162 | 7.8 | 10.4 | 0.00 | 0.00 | 0.00 | 84 | 1009.8 |
| 20260509100717 | 64 | 158 | 5.2 | 9.6 | 0.00 | 0.00 | 0.00 | 84 | 1009.8 |
| 20260509100217 | 65 | 178 | 4.3 | 8.7 | 0.00 | 0.00 | 0.00 | 84 | 1009.8 |
| 20260509095718 | 65 | 168 | 5.2 | 9.6 | 0.00 | 0.00 | 0.00 | 83 | 1009.9 |
| 20260509095218 | 65 | 147 | 6.1 | 10.4 | 0.00 | 0.00 | 0.00 | 83 | 1009.7 |
| 20260509094717 | 65 | 169 | 7.0 | 10.4 | 0.00 | 0.00 | 0.00 | 82 | 1009.8 |
| 20260509094217 | 65 | 120 | 4.3 | 9.6 | 0.00 | 0.00 | 0.00 | 82 | 1009.9 |
| 20260509093717 | 65 | 149 | 4.3 | 8.7 | 0.00 | 0.00 | 0.00 | 81 | 1010.1 |
| 20260509093218 | 65 | 151 | 4.3 | 8.7 | 0.00 | 0.00 | 0.00 | 81 | 1010.0 |
| 20260509092717 | 66 | 128 | 5.2 | 7.8 | 0.00 | 0.00 | 0.00 | 81 | 1010.0 |
| 20260509092218 | 66 | 128 | 5.2 | 12.2 | 0.00 | 0.00 | 0.00 | 80 | 1010.1 |
| 20260509091716 | 66 | 138 | 7.0 | 12.2 | 0.00 | 0.00 | 0.00 | 80 | 1010.1 |
| 20260509091513 | 66 | 149 | 6.1 | 9.6 | 0.00 | 0.00 | 0.00 | 80 | 1010.1 |
| 20260509090716 | 66 | 172 | 6.1 | 12.2 | 0.00 | 0.00 | 0.00 | 80 | 1010.1 |
| 20260509090216 | 66 | 169 | 7.0 | 12.2 | 0.00 | 0.00 | 0.00 | 79 | 1010.1 |
| 20260509085717 | 66 | 123 | 6.1 | 11.3 | 0.00 | 0.00 | 0.00 | 79 | 1010.0 |
| 20260509085256 | 67 | 134 | 6.1 | 10.4 | 0.00 | 0.00 | 0.00 | 79 | 1010.0 |
| 20260509084215 | 67 | 128 | 7.0 | 12.2 | 0.00 | 0.00 | 0.00 | 78 | 1010.1 |
| 20260509083715 | 67 | 162 | 6.1 | 12.2 | 0.00 | 0.00 | 0.00 | 78 | 1010.2 |
| 20260509083215 | 67 | 152 | 6.1 | 10.4 | 0.00 | 0.00 | 0.00 | 78 | 1010.2 |
| 20260509083007 | 67 | 157 | 7.0 | 10.4 | 0.00 | 0.00 | 0.00 | 78 | 1010.5 |
| 20260509082215 | 67 | 147 | 7.0 | 12.2 | 0.00 | 0.00 | 0.00 | 79 | 1010.7 |
| 20260509082007 | 67 | 149 | 7.8 | 12.2 | 0.00 | 0.00 | 0.00 | 79 | 1010.9 |
| 20260509081217 | 67 | 127 | 7.8 | 10.4 | 0.00 | 0.00 | 0.00 | 80 | 1010.8 |
| 20260509080714 | 67 | 118 | 7.0 | 10.4 | 0.00 | 0.00 | 0.00 | 81 | 1010.7 |
| 20260509080215 | 67 | 149 | 6.1 | 12.2 | 0.00 | 0.00 | 0.00 | 82 | 1010.9 |
| 20260509075715 | 67 | 142 | 7.8 | 12.2 | 0.00 | 0.00 | 0.00 | 82 | 1011.3 |
| 20260509075508 | 67 | 93 | 5.2 | 9.6 | 0.00 | 0.00 | 0.00 | 82 | 1011.2 |
| 20260509074714 | 67 | 111 | 6.1 | 11.3 | 0.00 | 0.00 | 0.00 | 82 | 1010.9 |
| 20260509074215 | 67 | 92 | 5.2 | 12.2 | 0.00 | 0.00 | 0.00 | 84 | 1011.0 |
| 20260509073714 | 67 | 69 | 8.7 | 12.2 | 0.00 | 0.00 | 0.00 | 84 | 1011.0 |
| 20260509073214 | 67 | 63 | 8.7 | 13.0 | 0.00 | 0.00 | 0.00 | 86 | 1011.2 |
| 20260509072714 | 67 | 62 | 6.1 | 13.9 | 0.00 | 0.00 | 0.00 | 87 | 1011.2 |
| 20260509072254 | 68 | 48 | 9.6 | 13.9 | 0.00 | 0.00 | 0.00 | 88 | 1011.4 |
| 20260509071213 | 69 | 75 | 6.1 | 11.3 | 0.00 | 0.00 | 0.00 | 92 | 1011.6 |
| 20260509070713 | 68 | 83 | 6.1 | 13.9 | 0.00 | 0.00 | 0.00 | 92 | 1011.5 |
| 20260509070213 | 68 | 73 | 6.1 | 14.8 | 0.00 | 0.00 | 0.00 | 92 | 1011.7 |
| 20260509065713 | 68 | 32 | 10.4 | 14.8 | 0.00 | 0.00 | 0.00 | 91 | 1011.6 |
| 20260509065214 | 68 | 35 | 6.1 | 10.4 | 0.00 | 0.00 | 0.00 | 91 | 1011.5 |
| 20260509064714 | 68 | 32 | 7.0 | 10.4 | 0.00 | 0.00 | 0.00 | 91 | 1011.3 |
| 20260509064505 | 68 | 34 | 5.2 | 6.1 | 0.00 | 0.00 | 0.00 | 89 | 1010.9 |
| 20260509063959 | 68 | 37 | 3.5 | 5.2 | 0.00 | 0.00 | 0.00 | 89 | 1010.5 |
| 20260509063212 | 69 | 169 | 1.7 | 2.6 | 0.00 | 0.00 | 0.00 | 89 | 1010.1 |
| 20260509062714 | 69 | 169 | 1.7 | 2.6 | 0.00 | 0.00 | 0.00 | 89 | 1009.9 |
| 20260509062212 | 69 | 312 | 0.9 | 2.6 | 0.00 | 0.00 | 0.00 | 89 | 1010.0 |
| 20260509061712 | 69 | 137 | 0.0 | 0.9 | 0.00 | 0.00 | 0.00 | 89 | 1009.9 |
| 20260509061213 | 69 | 0.0 | 0.0 | 0.00 | 0.00 | 0.00 | 89 | 1009.5 | |
| 20260509060713 | 69 | 351 | 2.6 | 3.5 | 0.00 | 0.00 | 0.00 | 89 | 1009.9 |
| 20260509060213 | 69 | 351 | 2.6 | 3.5 | 0.00 | 0.00 | 0.00 | 89 | 1010.2 |
| 20260509055711 | 69 | 321 | 0.9 | 8.7 | 0.00 | 0.00 | 0.00 | 89 | 1010.0 |
| 20260509055211 | 69 | 321 | 0.0 | 13.0 | 0.00 | 0.00 | 0.00 | 89 | 1009.7 |
| 20260509054712 | 69 | 341 | 9.6 | 13.0 | 0.00 | 0.00 | 0.00 | 88 | 1010.2 |
| 20260509054212 | 70 | 125 | 0.9 | 4.3 | 0.00 | 0.00 | 0.00 | 88 | 1009.2 |
| 20260509053712 | 70 | 125 | 1.7 | 4.3 | 0.00 | 0.00 | 0.00 | 88 | 1008.7 |
| 20260509053211 | 70 | 142 | 2.6 | 4.3 | 0.00 | 0.00 | 0.00 | 88 | 1008.6 |
| 20260509052711 | 70 | 141 | 3.5 | 6.1 | 0.00 | 0.00 | 0.00 | 88 | 1008.6 |
| 20260509052211 | 70 | 169 | 2.6 | 8.7 | 0.00 | 0.00 | 0.00 | 87 | 1008.5 |
| 20260509051711 | 70 | 166 | 3.5 | 8.7 | 0.00 | 0.00 | 0.00 | 87 | 1008.6 |
| 20260509051210 | 70 | 171 | 3.5 | 10.4 | 0.00 | 0.00 | 0.00 | 87 | 1008.7 |
| 20260509050710 | 70 | 154 | 3.5 | 10.4 | 0.00 | 0.00 | 0.00 | 87 | 1008.7 |
| 20260509050211 | 70 | 154 | 5.2 | 10.4 | 0.00 | 0.00 | 0.00 | 87 | 1008.7 |
| 20260509045959 | 70 | 183 | 5.2 | 12.2 | 0.00 | 0.00 | 0.00 | 87 | 1008.7 |